OBJECT C, 60237

Orbit data source: Space-Track

You're viewing an Uncataloged Satellite

Recently launched and/or uncataloged satellites may have evolving metadata. Metadata may include but not limited to: Owner, Maufacturer, Bus, Motor, and Mission.

OBJECT C, 60237 is a satellite in LEO that was launched on Tue, 09 Jul 2024 UTC via an ARIANE 62 launch vehicle from the French Guiana (FRGUI). Unknown objects in Earth's orbit typically refer to objects detected orbiting the Earth but have not yet been identified or cataloged. These objects could be anything from previously untracked satellites, spent rocket stages, debris from satellite collisions, or even natural meteoroids temporarily captured by Earth's gravity.

Loading next visibility...
Identifier
60237, 2024-128C
Orbit
LEO
Country
Flag of TBDTBD
Related business
Flag of SKTechnical University of Kosice (SK)
Manufacturer
TUKE/KONK
Mission
Operational Amateur Astronomy
Bus & Motor
CUBESAT 2U, Unknown motor
Mass
2 kg wet, 2 kg dry
Launch date (UTC)
2024-07-09 (2 years ago)
Launch vehicle
ARIANE 62
Launch site
French Guiana (FRGUI)
Object type
Unknown
Shape & HBR
Box, 0.1 m
Radar Cross Section
0.025 m², Medium (>0.1 m² and < 1m²)

Expand to show TLE details & history
Last TLE update: 14 hours ago

TLE from 14 hours ago
0 OBJECT C
1 60237U 24128C   26171.40570095  .00002226  00000-0  16133-3 0  9991
2 60237  61.9881 204.9739 0040241 135.3081 225.1267 15.06654606106752
Epoch: 2026-06-20T09:44Z
TLE epoch observation values (Epoch: 2026-06-20T09:44:12.562Z)
Latitude
-0.00001°
Longitude
150.30076°
Altitude
567.923 km
Speed
7.567 km/s
True Right ascension
13h 39m 53s
True Declination
0° 00' 00"
Sunlit
Object was in full shadow at epoch
Visualization orbit readout
Latitude
Unknown
Longitude
Unknown
Altitude
Unknown
Speed
Unknown
Apparent Right ascension
Unknown
Apparent Declination
Unknown
Sunlit
N/A
Visualization observer readout
Local Sidereal Time
10:18:43
Azimuth
Unknown
Elevation
Unknown
Doppler factor
Unknown
Orbital elements
Apogee altitude
573.221 km
Perigee altitude
517.499 km
Semi-major axis
6,923.497 km
Eccentricity
0.00402
Inclination
61.9881°
RAAN
204.9739°
Arg. of periapsis
135.3081°
True anomaly
224.80107°
Mean anomaly
225.1267°
Eccentric anomaly
224.96377°
Mean motion
3.76751 °/min
Orbital period
95.55 mins
BSTAR
0.00016133
Loading maneuver chart data...
Computing Atmospheric mass density...
Loading historical data...
Loading historical data...
Loading historical data...
Loading historical data...
Loading historical data...
Loading historical data...
Loading historical data...

Documentation

Showing up to 5 results
|